Volver al catálogo

FENGYUN 1C DEB

ActivoSSO
NORAD 33650·DEBRIS·🇨🇳 China

Lanzado May 10, 1999 desde Taiyuan Satellite Launch Center

Loading…

Próximos Pases (próximas 24 horas)

TLE

ActualizadoSource: Space-Track

Época: Sep 13, 2026, 03:49 UTC

1 33650U 99025DEK 26256.15918828  .00001125  00000-0  86386-3 0  9998
2 33650  99.0171  57.2504 0150260  52.6294 308.8441 13.90001982726209

Sigue FENGYUN 1C DEB en tiempo real con AllMySat

Download on the App Store